| time (UTC) | temp F | wind direction | speed knots | gust knots | rain 1hr in | rain 24hr in | rain mn in | humidity % | barometer mb |
| 20260505041116 | 32 | 315 | 22.6 | 20.9 | 0.00 | 0.29 | 0.25 | 1 | 1021.4 |
| 20260505040138 | 32 | 315 | 22.6 | 20.9 | 0.00 | 0.29 | 0.25 | 1 | 1021.4 |
| 20260505035116 | 71 | 335 | 6.1 | 12.2 | 0.00 | 0.42 | 0.32 | 47 | 1018.7 |
| 20260505034116 | 32 | 315 | 22.6 | 20.9 | 0.00 | 0.29 | 0.25 | 1 | 1021.4 |
| 20260505033116 | 71 | 347 | 6.1 | 11.3 | 0.00 | 0.43 | 0.32 | 45 | 1018.6 |
| 20260505032116 | 71 | 338 | 5.2 | 10.4 | 0.00 | 0.43 | 0.32 | 47 | 1018.7 |
| 20260505031116 | 71 | 316 | 3.5 | 8.7 | 0.00 | 0.43 | 0.32 | 51 | 1018.8 |
| 20260505030117 | 70 | 320 | 3.5 | 7.8 | 0.00 | 0.43 | 0.32 | 52 | 1018.7 |
| 20260505025138 | 69 | 305 | 4.3 | 9.6 | 0.00 | 0.43 | 0.32 | 54 | 1019.2 |
| 20260505025116 | 32 | 315 | 22.6 | 20.9 | 0.00 | 0.29 | 0.25 | 1 | 1022.4 |
| 20260505024117 | 32 | 315 | 22.6 | 20.9 | 0.00 | 0.29 | 0.25 | 1 | 1023.4 |
| 20260505023115 | 69 | 324 | 4.3 | 8.7 | 0.00 | 0.43 | 0.32 | 58 | 1019.6 |
| 20260505022116 | 69 | 326 | 6.1 | 9.6 | 0.00 | 0.43 | 0.32 | 58 | 1019.7 |
| 20260505021137 | 32 | 315 | 22.6 | 20.9 | 0.00 | 0.29 | 0.25 | 1 | 1024.4 |
| 20260505020137 | 32 | 315 | 22.6 | 20.9 | 0.00 | 0.29 | 0.25 | 1 | 1024.4 |
| 20260505015116 | 32 | 315 | 22.6 | 20.9 | 0.00 | 0.29 | 0.25 | 1 | 1024.4 |
| 20260505014115 | 68 | 294 | 4.3 | 9.6 | 0.00 | 0.43 | 0.32 | 51 | 1020.3 |
| 20260505013116 | 68 | 300 | 3.5 | 7.0 | 0.00 | 0.43 | 0.32 | 52 | 1020.3 |
| 20260505012115 | 67 | 276 | 3.5 | 7.0 | 0.00 | 0.43 | 0.32 | 51 | 1020.7 |
| 20260505011115 | 32 | 315 | 22.6 | 20.9 | 0.00 | 0.29 | 0.25 | 1 | 1024.4 |
| 20260505010117 | 67 | 269 | 2.6 | 7.8 | 0.00 | 0.43 | 0.32 | 53 | 1020.8 |
| 20260505005116 | 67 | 279 | 2.6 | 7.8 | 0.00 | 0.43 | 0.32 | 51 | 1020.9 |
| 20260505004116 | 32 | 315 | 22.6 | 20.9 | 0.00 | 0.29 | 0.25 | 1 | 1025.4 |
| 20260505003116 | 68 | 269 | 2.6 | 6.1 | 0.00 | 0.43 | 0.32 | 53 | 1021.1 |
| 20260505002115 | 32 | 315 | 22.6 | 20.9 | 0.00 | 0.29 | 0.25 | 1 | 1024.4 |
| 20260505001115 | 32 | 315 | 22.6 | 20.9 | 0.00 | 0.29 | 0.25 | 1 | 1024.4 |
| 20260505000116 | 66 | 262 | 0.9 | 6.1 | 0.00 | 0.43 | 0.32 | 60 | 1021.0 |
| 20260504235137 | 65 | 260 | 0.9 | 4.3 | 0.00 | 0.43 | 0.32 | 61 | 1021.2 |
| 20260504234116 | 32 | 315 | 22.6 | 20.9 | 0.00 | 0.29 | 0.25 | 1 | 1024.4 |
| 20260504233136 | 65 | 274 | 1.7 | 5.2 | 0.00 | 0.43 | 0.32 | 64 | 1021.1 |
| 20260504232136 | 64 | 252 | 0.9 | 3.5 | 0.00 | 0.43 | 0.32 | 67 | 1020.9 |
| 20260504231116 | 32 | 315 | 22.6 | 20.9 | 0.00 | 0.29 | 0.25 | 1 | 1024.4 |
| 20260504230116 | 32 | 315 | 22.6 | 20.9 | 0.00 | 0.29 | 0.25 | 1 | 1024.4 |
| 20260504225115 | 63 | 241 | 2.6 | 6.1 | 0.00 | 0.43 | 0.32 | 72 | 1021.2 |
| 20260504224116 | 63 | 228 | 1.7 | 5.2 | 0.00 | 0.43 | 0.32 | 75 | 1021.1 |
| 20260504223116 | 63 | 246 | 2.6 | 7.0 | 0.00 | 0.43 | 0.32 | 75 | 1021.0 |
| 20260504222115 | 32 | 315 | 22.6 | 20.9 | 0.00 | 0.29 | 0.25 | 1 | 1024.4 |
| 20260504221115 | 32 | 315 | 22.6 | 20.9 | 0.00 | 0.29 | 0.25 | 1 | 1023.4 |
| 20260504220116 | 32 | 315 | 22.6 | 20.9 | 0.00 | 0.29 | 0.25 | 1 | 1023.4 |
| 20260504215116 | 63 | 302 | 1.7 | 4.3 | 0.00 | 0.43 | 0.32 | 89 | 1020.2 |
| 20260504214116 | 63 | 300 | 3.5 | 7.0 | 0.00 | 0.43 | 0.32 | 90 | 1020.1 |
| 20260504213115 | 62 | 294 | 3.5 | 6.1 | 0.00 | 0.43 | 0.32 | 92 | 1019.8 |
| 20260504212115 | 32 | 315 | 22.6 | 20.9 | 0.00 | 0.29 | 0.25 | 1 | 1022.4 |
| 20260504211116 | 32 | 315 | 22.6 | 20.9 | 0.00 | 0.29 | 0.25 | 1 | 1022.4 |
| 20260504210136 | 63 | 0 | 0.0 | 0.0 | 0.00 | 0.43 | 0.32 | 95 | 1019.1 |
| 20260504205136 | 32 | 315 | 22.6 | 20.9 | 0.00 | 0.29 | 0.25 | 1 | 1022.4 |
| 20260504204115 | 63 | 0 | 0.0 | 0.0 | 0.00 | 0.43 | 0.32 | 94 | 1018.6 |
| 20260504203116 | 63 | 0 | 0.0 | 0.0 | 0.00 | 0.43 | 0.32 | 94 | 1018.4 |
| 20260504202136 | 32 | 315 | 22.6 | 20.9 | 0.00 | 0.29 | 0.25 | 1 | 1022.4 |
| 20260504201115 | 32 | 315 | 22.6 | 20.9 | 0.00 | 0.29 | 0.25 | 1 | 1022.4 |
| 20260504200116 | 32 | 315 | 22.6 | 20.9 | 0.00 | 0.29 | 0.25 | 1 | 1021.4 |
| 20260504195115 | 63 | 0 | 0.0 | 0.0 | 0.00 | 0.43 | 0.32 | 94 | 1018.2 |
| 20260504194115 | 63 | 292 | 0.0 | 1.7 | 0.00 | 0.43 | 0.32 | 93 | 1018.1 |
| 20260504193136 | 64 | 301 | 0.9 | 1.7 | 0.00 | 0.43 | 0.32 | 93 | 1018.0 |
| 20260504192116 | 32 | 315 | 22.6 | 20.9 | 0.00 | 0.29 | 0.25 | 1 | 1021.4 |
| 20260504191115 | 64 | 301 | 0.9 | 2.6 | 0.00 | 0.43 | 0.32 | 94 | 1018.1 |
| 20260504190116 | 64 | 311 | 0.0 | 0.9 | 0.00 | 0.43 | 0.32 | 94 | 1018.1 |
| 20260504185115 | 64 | 327 | 0.0 | 1.7 | 0.00 | 0.43 | 0.32 | 94 | 1018.0 |
| 20260504184115 | 64 | 338 | 0.9 | 3.5 | 0.00 | 0.43 | 0.32 | 94 | 1017.9 |
| 20260504183115 | 32 | 315 | 22.6 | 20.9 | 0.00 | 0.29 | 0.25 | 1 | 1021.4 |
| 20260504182116 | 63 | 336 | 0.0 | 2.6 | 0.00 | 0.43 | 0.32 | 94 | 1017.9 |
| 20260504181115 | 32 | 315 | 22.6 | 20.9 | 0.00 | 0.29 | 0.25 | 1 | 1021.4 |
| 20260504180136 | 63 | 142 | 0.9 | 1.7 | 0.00 | 0.43 | 0.32 | 94 | 1017.9 |
| 20260504175115 | 32 | 315 | 22.6 | 20.9 | 0.00 | 0.29 | 0.25 | 1 | 1021.4 |
| 20260504174114 | 32 | 315 | 22.6 | 20.9 | 0.00 | 0.29 | 0.25 | 1 | 1021.4 |
| 20260504173115 | 64 | 297 | 0.9 | 2.6 | 0.00 | 0.43 | 0.32 | 93 | 1017.5 |
| 20260504172135 | 64 | 292 | 0.9 | 4.3 | 0.00 | 0.43 | 0.32 | 94 | 1017.6 |
| 20260504172114 | 32 | 315 | 22.6 | 20.9 | 0.00 | 0.29 | 0.25 | 1 | 1021.4 |
| 20260504171115 | 63 | 0 | 0.0 | 0.0 | 0.00 | 0.43 | 0.32 | 93 | 1017.5 |
| 20260504170137 | 63 | 310 | 0.0 | 1.7 | 0.00 | 0.43 | 0.32 | 93 | 1017.2 |
| 20260504160115 | 64 | 327 | 1.7 | 5.2 | 0.27 | 0.43 | 0.32 | 93 | 1017.9 |
| 20260504151115 | 32 | 315 | 22.6 | 20.9 | 0.08 | 0.12 | 0.08 | 1 | 1021.4 |
| 20260504150115 | 64 | 312 | 4.3 | 7.8 | 0.05 | 0.16 | 0.05 | 94 | 1018.1 |
| 20260504141115 | 64 | 173 | 0.0 | 1.7 | 0.00 | 0.11 | 0.00 | 94 | 1017.4 |
| 20260504140137 | 32 | 315 | 22.6 | 20.9 | 0.00 | 0.04 | 0.00 | 1 | 1021.4 |
| 20260504130115 | 64 | 80 | 0.0 | 0.0 | 0.00 | 0.11 | 0.11 | 94 | 1017.5 |
| 20260504120114 | 32 | 315 | 22.6 | 20.9 | 0.00 | 0.04 | 0.04 | 1 | 1021.4 |
| 20260504110115 | 64 | 0 | 0.0 | 0.0 | 0.00 | 0.11 | 0.11 | 93 | 1018.1 |
| 20260504100115 | 32 | 315 | 22.6 | 20.9 | 0.04 | 0.04 | 0.04 | 1 | 1021.4 |
| 20260504090114 | 32 | 315 | 22.6 | 20.9 | 0.00 | 0.00 | 0.00 | 1 | 1021.4 |
| 20260504081134 | 32 | 315 | 22.6 | 20.9 | 0.00 | 0.00 | 0.00 | 1 | 1021.4 |
| 20260504080114 | 65 | 325 | 1.7 | 4.3 | 0.01 | 0.05 | 0.05 | 88 | 1017.4 |
| 20260504070113 | 32 | 315 | 22.6 | 20.9 | 0.00 | 0.00 | 0.00 | 1 | 1020.4 |
| 20260504060114 | 32 | 315 | 22.6 | 20.9 | 0.00 | 0.00 | 0.00 | 1 | 1020.4 |
| 20260504050135 | 32 | 315 | 22.6 | 20.9 | 0.00 | 0.00 | 0.00 | 1 | 1020.4 |
| 20260504045113 | 70 | 253 | 0.0 | 4.3 | 0.00 | 0.01 | 0.01 | 76 | 1016.6 |